Theta_e
336 338 341 342 347 342 336 339 337 338 336 336 336 336 335 334 338 339 333 335 338 343 343 332 327 328 329 329 329 328 329 330 332 336 334 330 330 329 329 330 331 332 332 332 325 321 321 321 322
341 342 342 339 342 337 336 336 337 337 335 335 336 336 337 338 335 334 336 337 338 342 345 333 329 327 326 327 329 329 329 328 332 337 334 331 330 330 330 329 330 331 331 332 334 333 326 321 322
338 343 342 346 341 339 335 333 334 333 334 336 337 338 337 335 335 336 337 339 342 341 339 340 339 339 338 326 327 329 330 330 334 337 336 332 332 332 332 332 331 331 330 330 330 331 333 331 324
342 337 342 348 341 339 338 336 334 334 334 336 337 337 338 338 338 338 339 341 345 345 342 342 340 332 338 337 333 338 338 336 334 337 337 336 334 334 334 331 327 327 327 328 328 329 331 332 332
340 337 342 340 339 339 338 336 336 338 338 339 338 338 336 337 339 340 341 342 342 343 344 343 342 337 337 338 337 338 339 339 337 337 337 335 333 330 328 327 325 323 322 330 331 331 331 331 332
338 336 346 343 340 339 339 338 338 339 339 340 342 341 339 341 342 342 342 341 341 340 339 337 339 337 336 339 336 334 335 337 338 337 335 332 329 327 326 325 323 321 320 322 328 330 330 329 329
336 339 340 342 343 342 340 339 339 340 341 342 338 343 343 341 342 340 340 337 334 331 329 329 336 336 337 337 334 330 330 335 334 331 329 326 329 327 325 322 321 314 311 313 316 319 324 327 328
336 340 340 340 342 340 339 339 338 338 343 342 336 337 342 342 340 339 336 332 328 326 324 325 326 329 339 337 333 333 330 328 328 328 327 327 328 327 319 321 318 317 316 313 314 313 312 316 314
334 340 341 342 342 341 340 340 340 340 340 341 340 341 342 342 340 336 330 326 325 323 323 325 327 329 331 333 332 332 330 328 327 324 319 323 322 321 320 320 320 320 320 320 320 319 322 324 326
337 339 340 339 340 341 340 340 341 341 341 342 342 341 341 339 332 327 325 324 324 323 324 327 330 330 331 329 329 328 328 327 326 324 318 320 321 321 321 321 322 321 321 322 321 321 321 321 324
339 340 338 338 340 340 340 339 341 342 342 342 341 341 338 331 327 326 325 324 323 323 324 326 329 330 331 329 328 327 326 325 324 322 318 320 322 321 322 322 322 321 321 321 321 321 321 321 321
338 338 338 339 340 339 340 340 341 342 343 342 342 339 333 328 328 327 326 324 324 323 322 326 327 328 327 328 327 326 325 324 323 322 319 320 323 319 323 322 321 321 320 320 320 320 320 321 321
337 338 339 339 339 340 341 342 343 342 343 343 341 336 331 329 328 328 328 327 326 324 323 323 325 326 325 325 326 325 324 322 322 323 318 322 322 318 322 321 321 321 320 320 321 320 320 321 321
338 339 339 339 339 341 342 342 342 343 343 343 340 337 332 330 330 329 329 328 327 321 321 322 323 319 324 323 324 323 322 322 322 322 322 322 320 319 320 321 320 319 321 320 320 320 320 320 321
341 338 336 339 339 342 342 343 342 343 343 342 340 339 333 332 332 332 332 330 328 325 318 319 321 322 320 323 323 322 322 322 321 322 322 318 320 318 320 321 320 320 321 321 320 319 320 320 320
339 340 344 340 340 340 337 341 342 342 342 341 341 340 336 333 333 332 333 331 329 324 323 319 316 322 324 323 323 323 321 321 322 322 321 317 320 319 320 320 320 320 321 319 316 316 318 320 321
339 346 345 342 339 341 341 346 344 342 342 341 341 340 339 337 335 334 332 331 330 328 325 321 318 321 324 322 322 322 321 322 322 322 320 318 320 319 318 319 319 318 320 319 317 314 317 319 319
336 341 342 342 340 339 342 346 345 341 341 341 341 342 340 339 337 336 332 332 331 330 327 323 316 316 323 321 321 321 322 321 322 322 320 320 320 319 318 318 319 316 319 318 316 314 316 318 317
336 336 338 337 338 335 339 342 346 342 340 341 340 342 338 339 338 337 334 333 333 332 329 323 320 314 323 321 322 321 322 322 322 321 321 321 319 318 318 317 317 316 319 317 313 315 314 316 316
336 337 336 338 339 336 341 339 345 343 341 340 341 340 339 339 341 338 335 334 333 333 330 326 320 313 318 323 323 323 322 322 321 321 321 321 319 318 318 317 315 315 317 316 313 313 313 313 315
334 336 336 336 335 339 341 341 342 343 342 340 340 340 338 338 341 340 337 335 335 334 332 326 321 317 313 323 323 323 323 323 322 321 321 321 320 319 317 317 317 314 317 316 313 312 313 312 313
337 335 336 338 340 343 339 340 345 344 342 341 340 340 340 339 339 341 338 336 335 334 332 327 323 318 321 315 324 323 323 322 323 321 320 320 320 319 318 317 316 315 316 315 313 313 312 313 312
334 334 337 339 342 342 341 342 346 345 345 343 341 340 338 338 338 339 338 336 336 334 332 328 323 323 317 316 315 323 321 322 322 321 321 319 319 319 318 315 315 315 314 315 313 312 313 312 313
334 337 340 340 342 349 342 341 344 344 339 335 341 340 338 338 337 338 336 335 335 333 330 327 326 324 322 322 323 323 322 319 321 320 322 319 319 319 318 314 315 316 314 314 314 315 312 312 312
337 341 342 346 344 347 341 339 340 335 334 333 335 339 338 336 337 338 336 335 334 333 331 328 327 325 324 322 323 323 321 322 322 323 321 321 319 319 319 315 316 315 316 315 315 316 313 312 313
336 337 341 341 339 340 339 339 340 337 336 335 334 335 338 337 336 338 337 336 335 333 332 329 325 324 324 323 323 323 322 321 322 322 318 320 320 319 319 317 317 316 316 315 315 315 315 314 312
337 339 338 340 339 339 337 339 338 338 338 337 336 335 336 337 337 339 338 336 334 333 333 330 325 325 324 323 322 322 323 321 321 320 319 319 320 319 319 318 318 315 316 315 315 314 314 314 313
334 335 339 339 343 343 339 339 339 339 336 337 337 337 336 337 338 337 337 336 333 334 333 331 326 325 324 323 323 322 322 322 321 321 321 320 319 319 318 318 318 316 316 316 315 315 314 314 315
336 337 342 340 339 341 336 338 338 341 339 339 336 337 337 337 338 337 338 336 333 333 333 331 326 324 324 323 322 322 322 322 322 321 321 320 319 319 319 317 318 317 316 316 315 315 314 314 315
335 338 339 341 342 340 340 338 337 340 338 334 335 335 336 337 337 338 338 336 334 333 332 331 327 324 323 323 323 323 322 322 322 322 322 321 320 319 320 319 317 318 317 315 316 315 315 314 315
Wind_Speed
1 8 11 6 7 4 15 19 13 17 20 24 28 22 21 23 13 10 10 9 7 3 6 8 7 6 5 4 4 4 4 5 6 7 9 9 10 11 12 13 14 15 15 16 16 16 16 16 15
2 6 12 4 2 13 12 16 17 15 20 22 23 24 24 21 23 17 11 7 4 8 13 12 10 7 7 6 6 5 6 7 7 8 9 10 10 11 11 12 12 12 12 13 15 17 17 17 17
6 2 12 4 7 12 12 15 13 17 14 16 18 17 16 18 15 11 9 4 3 5 3 7 12 11 9 7 7 7 7 8 9 10 10 10 11 12 12 13 14 15 17 17 17 17 17 18 18
9 28 12 16 24 19 15 10 17 18 14 21 20 16 17 16 15 11 8 7 16 12 15 12 18 16 11 9 10 9 9 9 10 10 10 12 13 14 13 14 15 17 18 19 18 18 17 17 18
23 5 4 9 21 17 13 15 20 20 19 22 24 19 18 14 12 10 8 9 11 11 15 15 16 18 17 10 10 11 9 8 8 10 12 13 13 13 14 14 15 17 17 16 16 16 16 17 16
12 12 6 5 19 15 21 17 19 24 25 22 22 22 15 12 11 10 9 8 9 12 14 14 14 14 17 11 13 12 10 9 9 10 11 11 13 16 17 18 19 18 18 17 17 16 15 14 13
11 9 18 19 21 16 17 16 16 20 11 26 30 4 17 11 10 8 11 12 10 10 10 11 13 13 14 10 16 16 12 8 8 10 10 13 14 20 20 21 22 25 19 17 17 18 18 17 17
18 11 23 14 20 9 13 23 21 17 29 20 14 5 10 8 8 8 8 9 10 11 12 11 7 9 8 10 18 15 16 10 13 14 8 13 13 14 13 14 22 19 21 18 18 16 13 13 14
38 2 8 13 16 11 14 15 19 15 21 22 17 17 12 9 9 9 10 12 11 12 13 12 10 8 6 11 14 14 15 12 10 8 6 10 8 13 12 17 21 24 24 23 21 18 15 16 13
18 3 3 12 17 16 18 20 14 14 17 17 16 13 11 11 10 10 10 11 13 14 14 14 12 8 8 4 8 6 7 12 15 19 9 10 11 11 12 12 16 17 19 16 17 16 16 13 9
15 6 14 14 15 14 12 19 16 18 11 14 13 14 12 11 10 11 11 12 12 12 13 13 11 10 8 8 7 6 6 9 10 16 14 11 13 9 12 13 12 16 14 17 17 15 18 16 16
14 15 16 13 17 15 19 16 9 16 17 12 14 13 12 11 11 11 12 12 12 12 12 11 10 9 8 11 6 6 10 9 11 12 16 13 16 12 13 14 15 16 16 17 16 15 17 15 13
10 11 13 14 14 14 15 15 11 13 12 11 12 12 11 10 11 11 10 9 11 12 11 10 10 10 9 5 7 9 9 11 10 14 16 18 14 18 10 16 15 16 14 17 18 18 16 15 13
10 13 11 11 12 10 16 15 10 10 11 10 10 10 9 9 9 8 8 9 10 12 11 10 10 8 8 10 11 7 9 8 9 12 19 14 18 20 14 17 17 18 16 19 15 15 16 16 13
36 10 22 9 13 14 11 5 8 13 12 10 10 8 7 7 6 7 7 7 9 12 14 10 9 11 9 7 9 6 6 7 8 11 15 15 19 20 14 16 17 16 18 17 17 12 9 11 14
3 8 8 12 17 19 14 8 12 15 14 12 12 10 8 6 6 5 5 5 7 8 12 12 7 5 8 6 7 6 10 7 8 8 12 15 15 18 13 16 16 14 16 18 21 13 17 10 20
14 7 15 14 8 18 11 5 20 19 17 16 16 15 13 11 10 8 4 2 3 7 8 9 10 6 5 8 7 7 9 8 9 8 11 15 14 17 13 15 16 14 17 20 27 16 13 17 18
4 5 8 13 10 6 13 12 19 23 18 17 17 16 16 11 15 12 9 3 2 3 7 9 9 8 7 6 4 5 6 6 7 10 13 14 13 15 16 11 16 13 17 19 26 18 15 15 22
15 17 15 10 4 4 8 10 20 22 17 13 12 19 12 11 19 15 11 6 2 0 5 8 9 8 7 3 4 4 4 6 5 9 10 12 14 16 16 14 16 9 15 21 22 21 18 19 20
18 6 8 7 0 4 6 4 20 23 18 15 13 11 11 16 17 14 10 8 5 5 2 7 8 8 4 2 7 5 9 4 8 10 8 14 15 14 14 17 20 16 16 20 22 19 20 11 12
7 13 16 10 7 8 11 16 12 16 18 16 15 16 11 18 19 18 14 11 8 6 4 7 7 7 8 7 4 6 5 8 7 7 11 9 13 14 16 15 17 17 17 22 21 17 17 19 15
0 8 13 16 17 10 22 5 13 12 10 15 16 16 18 18 17 17 16 13 9 6 7 6 7 4 7 2 3 9 6 5 8 5 10 10 12 10 17 15 13 16 15 20 22 17 16 15 17
12 10 12 18 11 6 16 8 10 11 13 16 19 16 15 14 19 20 18 17 13 12 5 9 8 5 5 3 2 4 1 1 4 9 6 8 9 13 16 15 14 15 12 18 18 18 17 17 13
9 6 5 6 3 5 18 12 6 10 4 3 22 18 16 13 15 16 19 18 13 11 9 8 5 6 4 2 3 4 3 5 5 9 9 6 7 11 17 16 14 14 16 14 17 15 17 15 13
19 17 2 3 5 4 2 9 9 11 9 3 1 20 17 12 15 18 17 18 17 13 11 8 7 5 5 2 3 4 3 7 7 5 6 5 7 10 16 16 13 14 14 16 13 12 20 19 16
7 1 6 8 11 7 6 4 4 4 6 4 2 1 21 18 14 19 18 18 16 16 13 11 11 6 7 4 5 4 5 0 2 8 7 1 6 10 13 15 12 11 11 14 10 10 13 18 19
2 2 9 11 14 13 2 7 6 14 8 8 3 2 8 18 12 16 21 19 15 17 13 13 9 7 10 7 7 5 5 7 4 9 8 8 6 9 11 12 13 12 11 15 16 12 13 15 16
12 9 11 5 3 9 14 8 5 13 9 5 6 5 5 11 9 8 26 20 16 15 13 12 11 10 10 7 7 5 7 6 7 7 11 12 11 10 10 10 13 14 12 15 16 17 15 16 15
11 14 6 2 2 5 7 9 6 17 11 14 8 7 9 11 12 15 19 20 18 15 13 14 11 11 10 10 9 10 10 8 9 9 8 14 14 11 11 12 12 13 14 14 16 16 16 16 16
4 13 7 2 6 12 14 1 7 2 13 14 25 3 7 9 10 14 20 20 19 16 15 16 12 9 8 9 9 10 11 10 11 11 11 12 13 13 12 12 12 12 12 14 17 17 17 16 16
Wind_Direction
306 27 349 242 260 212 71 103 71 80 72 66 69 69 66 53 48 97 118 109 98 79 11 24 8 1 353 349 338 333 336 335 335 341 348 350 352 349 345 338 333 325 316 308 301 298 297 297 296
87 308 271 345 253 90 81 89 91 97 108 109 97 83 63 76 87 104 104 104 114 124 104 359 350 339 326 322 325 325 324 320 325 335 345 350 350 346 346 342 337 330 324 318 308 295 289 287 288
67 21 263 300 83 85 93 92 101 120 111 97 79 71 75 82 73 99 97 105 112 271 210 355 5 344 322 319 323 323 323 323 329 334 336 339 340 339 335 331 327 322 316 313 310 303 290 281 279
4 9 305 224 72 60 77 82 118 113 108 104 109 77 75 82 95 92 84 49 38 36 13 41 20 13 3 345 335 334 329 324 322 327 332 336 334 330 327 325 322 318 313 310 304 299 299 293 286
83 21 292 112 107 78 63 96 79 68 79 98 97 92 85 90 90 83 63 44 29 26 42 6 8 13 4 12 359 342 334 327 327 328 334 337 335 336 332 335 332 330 326 321 317 316 308 302 296
102 71 327 323 78 87 65 56 79 76 78 72 59 87 100 104 87 78 65 46 44 32 31 13 360 6 357 7 8 347 339 338 338 339 342 352 355 355 342 338 336 331 322 317 314 313 312 313 310
181 118 251 79 47 337 90 86 74 53 68 85 111 205 116 93 99 87 72 47 28 22 19 22 5 6 349 22 12 356 0 2 9 16 17 17 0 1 352 342 340 336 327 317 309 303 302 300 300
64 73 316 91 113 238 86 80 98 103 99 105 129 146 125 110 85 80 61 44 28 23 21 17 27 10 338 23 9 8 16 32 31 26 17 9 356 341 335 327 343 4 9 5 1 357 356 343 318
60 70 244 122 163 110 87 81 76 66 77 84 105 128 112 92 64 52 40 37 31 28 19 10 24 47 29 3 8 12 18 19 6 342 22 7 9 322 11 341 352 4 8 6 6 11 17 360 355
109 177 79 95 97 96 82 105 116 106 99 98 96 100 100 92 81 69 58 45 34 28 24 18 26 51 42 17 30 21 8 8 7 354 33 12 13 359 10 358 357 356 355 351 354 358 349 340 340
106 99 71 57 65 89 99 89 106 112 93 108 121 109 105 98 87 76 63 49 39 32 30 28 28 29 72 35 31 16 359 19 353 348 17 42 13 21 19 358 4 349 341 346 352 356 335 354 350
75 62 64 61 50 68 95 104 72 108 117 117 106 114 109 95 83 72 60 52 44 37 36 26 26 34 83 78 34 21 12 25 7 360 8 29 15 9 22 360 355 343 338 349 349 344 329 343 353
78 85 86 72 72 92 87 85 94 95 106 113 123 125 113 107 95 82 69 54 49 41 37 33 20 66 29 45 76 26 39 16 21 351 15 11 23 359 27 9 352 336 4 355 349 342 349 340 341
89 54 104 108 101 102 96 119 123 132 134 134 143 129 123 107 100 87 69 56 21 28 32 36 12 41 48 43 48 32 54 21 22 359 356 19 5 358 37 7 351 341 20 360 345 346 350 342 337
12 13 325 153 122 126 113 180 124 157 162 161 153 149 128 121 96 91 87 70 61 11 19 57 24 2 50 47 77 21 71 25 31 24 344 15 1 355 37 359 348 24 18 336 323 328 349 353 349
307 351 308 155 151 119 119 259 151 174 182 167 168 165 169 145 121 117 101 77 34 30 12 15 44 44 358 70 39 26 52 40 36 20 346 14 2 355 46 359 352 18 2 321 336 353 360 354 355
174 210 233 148 161 160 163 178 196 187 193 176 179 173 184 178 170 163 127 119 67 13 23 19 9 37 56 9 51 31 39 38 36 341 352 7 9 356 29 6 349 357 357 335 339 1 3 355 332
100 36 193 122 153 182 222 158 159 186 206 181 182 186 179 201 186 171 150 152 122 21 6 6 16 47 48 45 33 31 16 35 15 343 356 357 15 355 2 15 348 2 356 336 342 358 358 9 345
47 46 357 324 98 286 274 154 168 181 203 204 178 183 196 196 162 163 159 175 244 132 345 6 359 43 73 12 40 39 45 15 24 353 357 353 8 360 1 19 348 27 10 340 346 357 5 8 337
20 54 224 250 238 296 251 221 161 169 192 201 194 222 203 168 157 163 169 178 199 244 326 335 3 13 85 46 3 30 29 35 21 357 355 353 358 4 6 11 3 32 14 336 354 360 355 357 357
324 323 321 352 326 213 263 257 166 162 181 199 205 195 223 173 171 173 184 193 203 225 248 302 345 13 27 80 346 75 39 10 354 15 325 2 348 360 7 8 3 14 358 347 2 10 3 1 13
16 258 304 354 343 30 339 327 156 161 181 193 207 207 199 184 188 181 178 183 183 221 241 276 318 46 336 89 31 55 38 1 360 355 342 5 340 352 350 358 11 6 5 353 0 13 11 6 0
327 2 53 4 2 68 288 293 124 154 197 205 202 208 207 185 184 177 188 182 180 198 223 228 311 342 342 9 65 95 256 237 346 339 17 358 354 339 337 352 7 357 15 356 7 18 11 6 2
326 79 74 300 304 61 256 240 134 200 148 308 186 190 201 180 198 173 183 164 161 181 192 226 280 303 328 349 322 351 359 353 54 14 8 342 353 333 325 346 2 358 6 3 0 7 3 0 358
306 345 336 268 224 188 297 289 84 60 53 51 119 174 176 174 180 169 162 163 161 191 185 218 238 265 284 274 258 289 331 29 25 326 290 1 337 333 323 344 352 359 358 8 12 352 354 9 6
40 311 27 301 336 328 75 87 118 70 82 65 8 240 172 178 194 173 176 173 171 187 188 194 241 247 253 239 243 272 310 39 320 280 313 342 340 314 325 337 337 346 345 343 352 357 350 351 358
315 275 297 311 328 303 220 156 339 318 144 110 147 187 182 180 191 163 176 174 171 183 190 200 207 227 234 234 257 279 291 314 312 311 339 313 305 307 308 332 326 336 333 337 347 348 351 345 356
257 5 334 77 31 341 319 44 180 266 63 95 146 177 211 161 171 209 167 168 167 180 197 202 214 223 246 249 256 274 257 302 293 310 312 318 320 310 322 318 321 327 325 323 331 343 339 340 342
32 287 57 73 281 249 315 33 36 18 76 16 335 179 186 191 210 196 162 167 165 178 193 211 203 209 237 244 237 240 263 262 281 290 299 305 319 315 316 327 310 322 318 317 316 331 338 333 325
220 336 36 273 313 318 303 328 323 102 73 129 266 237 210 215 204 165 168 171 171 182 194 219 203 216 239 249 253 256 265 270 273 283 289 292 306 310 306 315 317 307 309 316 310 319 325 330 323